Flag for Madagascar Weather past 2 weeks in Antsirabe, Madagascar

Now
64 °F

Broken clouds.


Feels Like: 64 °F
Forecast: 47 / 72 °F
Wind: 9 mph from East

Location: Antananarivo / Ivato

Current Time: May 27, 2015 at 9:37:04 AM

Latest Report: May 27, 2015 at 9:00 AM


Visibility: N/A

Pressure: 30.30 "Hg

Humidity: 94%

Dew point: 63 °F

Location of AntsirabeLocation

Historic Weather in Antsirabe — Graph

°F

Antsirabe temperature yesterday

Maximum temperature yesterday: 77 °F (at 1:30 PM)
Minimum temperature yesterday: 55 °F (at 5:30 AM)
Average temperature yesterday: 65 °F

Past Weeks' High & Low Weather Summary

 TemperatureHumidityPressure
High81 °F (May 12, 2:30 PM)100% (May 13, 4:00 AM)30.33 "Hg (May 13, 4:00 AM)
Low52 °F (May 16, 6:00 AM)37% (May 14, 2:00 PM)30.09 "Hg (May 13, 2:30 PM)
Average65 °F87%30.23 "Hg
* Reported May 12 8:00 AM — May 27 8:30 AM, Antsirabe, Weather by CustomWeather, © 2015

Note: Actual official high and low records may vary slightly from our data, if they occured in-between our weather recording intervals... More about our weather records

Advertising

Antsirabe weather history for previous 24 hours

 ConditionsComfort  
Time TempWeatherWind HumidityBarometerVisibility
8:30 AM
Wed, May 27
63 °FBroken clouds.No wind100%30.27 "HgN/A
8:00 AM63 °FScattered clouds.5 mph100%30.27 "HgN/A
7:30 AM63 °FScattered clouds.No wind100%30.27 "HgN/A
7:00 AM59 °FScattered clouds.No wind100%30.27 "HgN/A
6:30 AM57 °FScattered clouds.No wind100%30.27 "HgN/A
6:00 AM59 °FPassing clouds.No wind100%30.27 "HgN/A
5:30 AM59 °FPassing clouds.No wind100%30.24 "HgN/A
5:00 AM59 °FPassing clouds.6 mph100%30.24 "HgN/A
4:00 AM59 °FPassing clouds.No wind100%30.24 "HgN/A
3:30 AM61 °FPassing clouds.No wind100%30.24 "HgN/A
3:00 AM59 °FPassing clouds.No wind100%30.24 "HgN/A
2:30 AM59 °FPassing clouds.No wind100%30.24 "HgN/A
2:00 AM59 °FPassing clouds.No wind100%30.24 "HgN/A
1:30 AM57 °FPassing clouds.No wind100%30.24 "HgN/A
12:30 AM59 °FPassing clouds.No wind100%30.27 "HgN/A
12:00 AM59 °FPassing clouds.3 mph100%30.27 "HgN/A
11:30 PM
Tue, May 26
59 °FPassing clouds.3 mph100%30.27 "HgN/A
11:00 PM59 °FPassing clouds.5 mph100%30.27 "HgN/A
10:30 PM61 °FPassing clouds.5 mph100%30.27 "HgN/A
10:00 PM61 °FPassing clouds.8 mph100%30.27 "HgN/A
9:30 PM61 °FPassing clouds.7 mph100%30.27 "HgN/A
9:00 PM61 °FPassing clouds.5 mph100%30.27 "HgN/A
8:30 PM61 °FPassing clouds.6 mph100%30.24 "HgN/A
8:00 PM61 °FPassing clouds.8 mph100%30.24 "HgN/A
7:30 PM63 °FPassing clouds.10 mph100%30.24 "HgN/A
7:00 PM64 °FPassing clouds.9 mph94%30.24 "HgN/A
6:30 PM64 °FPassing clouds.8 mph88%30.21 "HgN/A
6:00 PM66 °FPassing clouds.7 mph78%30.21 "HgN/A
5:30 PM68 °FPassing clouds.9 mph73%30.21 "HgN/A
5:00 PM72 °FScattered clouds.No wind61%30.18 "HgN/A
4:00 PM73 °FPartly sunny.No wind61%30.18 "HgN/A
3:30 PM75 °FPartly sunny.5 mph57%30.18 "HgN/A
3:00 PM77 °FPartly sunny.3 mph54%30.18 "HgN/A
2:30 PM77 °FPartly sunny.5 mph54%30.18 "HgN/A
2:00 PM77 °FPartly sunny.No wind54%30.18 "HgN/A
1:30 PM77 °FPartly sunny.1 mph54%30.18 "HgN/A
1:00 PM73 °FPartly sunny.No wind61%30.18 "HgN/A
12:30 PM75 °FPartly sunny.No wind57%30.21 "HgN/A
12:00 PM75 °FScattered clouds.No wind65%30.21 "HgN/A
11:30 AM73 °FScattered clouds.No wind69%30.21 "HgN/A
11:00 AM72 °FScattered clouds.No wind78%30.24 "HgN/A
10:30 AM70 °FScattered clouds.No wind78%30.24 "HgN/A
10:00 AM70 °FScattered clouds.2 mph78%30.27 "HgN/A
9:30 AM68 °FScattered clouds.No wind83%30.27 "HgN/A
9:00 AM66 °FPassing clouds.No wind88%30.27 "HgN/A
Weather by CustomWeather, © 2015

See weather overviewHow to use our weather pages